Amelia, Nebraska
Current Conditions -  °F | °C
As of 1:15 PM on Thursday 30 Oct 2014 (Local Time) from KONL Reporting Station
Clear Clear  
Wind Chill: 55°   Ceiling: Unl
Heat Index: 55°   Visibility: 10mi
Dew Point: 38°   Wind: 25mph
Humidity: 52%   Direction: 330°NNW
Pressure: 30.21"   Gusts: 32mph
Location:  42.24°N, 98.91°W
Report Text: KONL 301815Z AUTO 33022G28KT 10SM CLR 13/03 A3021 RMK AO2 T01300034
Loading
Personal Weather Stations






























Interactive Weather Map New forecast layout! Learn more

10-Day Weather Forecast

Advertisements
Track Severe Weather on mobile